Year,Month,Day,Hour,Minute,Value (Times are PST for windspeed in km/hr)
2014,02,14,00,00,14.00
2014,02,14,00,01,13.00
2014,02,14,00,02,13.70
2014,02,14,00,03,9.70
2014,02,14,00,04,14.20
2014,02,14,00,05,17.60
2014,02,14,00,06,17.40
2014,02,14,00,07,19.60
2014,02,14,00,08,17.50
2014,02,14,00,09,16.60
2014,02,14,00,10,18.80
2014,02,14,00,11,14.50
2014,02,14,00,12,13.00
2014,02,14,00,13,9.80
2014,02,14,00,14,14.70
2014,02,14,00,15,17.50
2014,02,14,00,16,18.30
2014,02,14,00,17,13.00
2014,02,14,00,18,15.90
2014,02,14,00,19,17.50
2014,02,14,00,20,16.80
2014,02,14,00,21,17.10
2014,02,14,00,22,15.30
2014,02,14,00,23,13.60
2014,02,14,00,24,11.10
2014,02,14,00,25,10.80
2014,02,14,00,26,11.00
2014,02,14,00,27,9.90
2014,02,14,00,28,10.50
2014,02,14,00,29,12.10
2014,02,14,00,30,11.40
2014,02,14,00,31,15.00
2014,02,14,00,32,13.00
2014,02,14,00,33,16.00
2014,02,14,00,34,12.60
2014,02,14,00,35,11.80
2014,02,14,00,36,13.00
2014,02,14,00,37,14.10
2014,02,14,00,38,15.10
2014,02,14,00,39,13.30
2014,02,14,00,40,14.60
2014,02,14,00,41,15.90
2014,02,14,00,42,16.10
2014,02,14,00,43,13.60
2014,02,14,00,44,11.50
2014,02,14,00,45,12.20
2014,02,14,00,46,11.60
2014,02,14,00,47,13.20
2014,02,14,00,48,13.70
2014,02,14,00,49,17.50
2014,02,14,00,50,18.20
2014,02,14,00,51,17.10
2014,02,14,00,52,14.80
2014,02,14,00,53,12.50
2014,02,14,00,54,17.10
2014,02,14,00,55,10.10
2014,02,14,00,56,10.90
2014,02,14,00,57,9.30
2014,02,14,00,58,14.50
2014,02,14,00,59,13.50
2014,02,14,01,00,9.90
2014,02,14,01,01,11.30
2014,02,14,01,02,13.00
2014,02,14,01,03,17.90
2014,02,14,01,04,15.40
2014,02,14,01,05,18.30
2014,02,14,01,06,16.60
2014,02,14,01,07,14.20
2014,02,14,01,08,11.10
2014,02,14,01,09,16.20
2014,02,14,01,10,14.20
2014,02,14,01,11,14.20
2014,02,14,01,12,14.50
2014,02,14,01,13,16.90
2014,02,14,01,14,18.40
2014,02,14,01,15,18.10
2014,02,14,01,16,19.40
2014,02,14,01,17,15.90
2014,02,14,01,18,24.90
2014,02,14,01,19,21.70
2014,02,14,01,20,12.20
2014,02,14,01,21,21.10
2014,02,14,01,22,18.30
2014,02,14,01,23,14.20
2014,02,14,01,24,15.30
2014,02,14,01,25,18.60
2014,02,14,01,26,25.70
2014,02,14,01,27,23.00
2014,02,14,01,28,23.50
2014,02,14,01,29,17.90
2014,02,14,01,30,17.50
2014,02,14,01,31,18.50
2014,02,14,01,32,21.40
2014,02,14,01,33,19.30
2014,02,14,01,34,21.30
2014,02,14,01,35,18.20
2014,02,14,01,36,17.60
2014,02,14,01,37,24.40
2014,02,14,01,38,19.60
2014,02,14,01,39,19.50
2014,02,14,01,40,20.80
2014,02,14,01,41,19.20
2014,02,14,01,42,17.50
2014,02,14,01,43,18.20
2014,02,14,01,44,18.90
2014,02,14,01,45,21.60
2014,02,14,01,46,18.70
2014,02,14,01,47,21.10
2014,02,14,01,48,20.80
2014,02,14,01,49,17.90
2014,02,14,01,50,18.40
2014,02,14,01,51,20.30
2014,02,14,01,52,18.50
2014,02,14,01,53,16.70
2014,02,14,01,54,21.10
2014,02,14,01,55,18.40
2014,02,14,01,56,18.20
2014,02,14,01,57,20.80
2014,02,14,01,58,23.40
2014,02,14,01,59,20.10
2014,02,14,02,00,24.10
2014,02,14,02,01,20.90
2014,02,14,02,02,31.40
2014,02,14,02,03,26.10
2014,02,14,02,04,19.00
2014,02,14,02,05,19.60
2014,02,14,02,06,22.90
2014,02,14,02,07,23.30
2014,02,14,02,08,29.50
2014,02,14,02,09,24.30
2014,02,14,02,10,26.80
2014,02,14,02,11,24.00
2014,02,14,02,12,26.80
2014,02,14,02,13,26.70
2014,02,14,02,14,24.10
2014,02,14,02,15,21.60
2014,02,14,02,16,23.90
2014,02,14,02,17,24.60
2014,02,14,02,18,24.90
2014,02,14,02,19,25.60
2014,02,14,02,20,28.60
2014,02,14,02,21,28.10
2014,02,14,02,22,22.20
2014,02,14,02,23,24.20
2014,02,14,02,24,20.10
2014,02,14,02,25,21.60
2014,02,14,02,26,23.30
2014,02,14,02,27,20.80
2014,02,14,02,28,24.30
2014,02,14,02,29,18.20
2014,02,14,02,30,21.70
2014,02,14,02,31,27.00
2014,02,14,02,32,24.10
2014,02,14,02,33,22.10
2014,02,14,02,34,21.80
2014,02,14,02,35,19.00
2014,02,14,02,36,17.50
2014,02,14,02,37,17.90
2014,02,14,02,38,22.80
2014,02,14,02,39,19.90
2014,02,14,02,40,19.10
2014,02,14,02,41,21.20
2014,02,14,02,42,19.60
2014,02,14,02,43,19.10
2014,02,14,02,44,19.30
2014,02,14,02,45,24.40
2014,02,14,02,46,24.50
2014,02,14,02,47,19.90
2014,02,14,02,48,17.10
2014,02,14,02,49,22.60
2014,02,14,02,50,29.50
2014,02,14,02,51,26.60
2014,02,14,02,52,28.20
2014,02,14,02,53,28.50
2014,02,14,02,54,22.40
2014,02,14,02,55,21.00
2014,02,14,02,56,22.10
2014,02,14,02,57,18.70
2014,02,14,02,58,28.60
2014,02,14,02,59,27.00
2014,02,14,03,00,25.40
2014,02,14,03,01,23.70
2014,02,14,03,02,19.60
2014,02,14,03,03,18.30
2014,02,14,03,04,19.20
2014,02,14,03,05,19.20
2014,02,14,03,06,28.70
2014,02,14,03,07,29.50
2014,02,14,03,08,23.80
2014,02,14,03,09,28.90
2014,02,14,03,10,24.90
2014,02,14,03,11,21.80
2014,02,14,03,12,27.90
2014,02,14,03,13,30.00
2014,02,14,03,14,28.40
2014,02,14,03,15,19.60
2014,02,14,03,16,26.40
2014,02,14,03,17,27.80
2014,02,14,03,18,28.10
2014,02,14,03,19,28.60
2014,02,14,03,20,29.50
2014,02,14,03,21,26.60
2014,02,14,03,22,20.90
2014,02,14,03,23,21.20
2014,02,14,03,24,23.70
2014,02,14,03,25,29.20
2014,02,14,03,26,23.80
2014,02,14,03,27,25.40
2014,02,14,03,28,23.50
2014,02,14,03,29,23.40
2014,02,14,03,30,24.50
2014,02,14,03,31,27.10
2014,02,14,03,32,18.70
2014,02,14,03,33,23.30
2014,02,14,03,34,24.60
2014,02,14,03,35,25.10
2014,02,14,03,36,25.10
2014,02,14,03,37,23.50
2014,02,14,03,38,22.10
2014,02,14,03,39,22.90
2014,02,14,03,40,21.20
2014,02,14,03,41,19.70
2014,02,14,03,42,20.40
2014,02,14,03,43,21.30
2014,02,14,03,44,13.20
2014,02,14,03,45,18.50
2014,02,14,03,46,22.90
2014,02,14,03,47,17.90
2014,02,14,03,48,19.10
2014,02,14,03,49,31.50
2014,02,14,03,50,30.80
2014,02,14,03,51,32.60
2014,02,14,03,52,35.70
2014,02,14,03,53,26.60
2014,02,14,03,54,26.60
2014,02,14,03,55,23.60
2014,02,14,03,56,24.20
2014,02,14,03,57,19.40
2014,02,14,03,58,24.50
2014,02,14,03,59,25.70
2014,02,14,04,00,20.80
2014,02,14,04,01,19.30
2014,02,14,04,02,21.50
2014,02,14,04,03,24.90
2014,02,14,04,04,21.60
2014,02,14,04,05,20.80
2014,02,14,04,06,20.30
2014,02,14,04,07,19.20
2014,02,14,04,08,19.90
2014,02,14,04,09,17.40
2014,02,14,04,10,17.40
2014,02,14,04,11,15.50
2014,02,14,04,12,11.30
2014,02,14,04,13,14.60
2014,02,14,04,14,15.00
2014,02,14,04,15,11.30
2014,02,14,04,16,19.50
2014,02,14,04,17,12.20
2014,02,14,04,18,13.60
2014,02,14,04,19,17.10
2014,02,14,04,20,17.90
2014,02,14,04,21,16.30
2014,02,14,04,22,14.60
2014,02,14,04,23,18.50
2014,02,14,04,24,18.60
2014,02,14,04,25,14.20
2014,02,14,04,26,20.00
2014,02,14,04,27,17.50
2014,02,14,04,28,18.40
2014,02,14,04,29,12.60
2014,02,14,04,30,17.60
2014,02,14,04,31,15.50
2014,02,14,04,32,17.80
2014,02,14,04,33,16.20
2014,02,14,04,34,19.40
2014,02,14,04,35,19.90
2014,02,14,04,36,20.00
2014,02,14,04,37,16.60
2014,02,14,04,38,21.30
2014,02,14,04,39,16.50
2014,02,14,04,40,16.90
2014,02,14,04,41,18.80
2014,02,14,04,42,21.00
2014,02,14,04,43,19.70
2014,02,14,04,44,19.40
2014,02,14,04,45,15.70
2014,02,14,04,46,18.00
2014,02,14,04,47,20.30
2014,02,14,04,48,19.00
2014,02,14,04,49,15.40
2014,02,14,04,50,16.80
2014,02,14,04,51,17.50
2014,02,14,04,52,18.80
2014,02,14,04,53,10.80
2014,02,14,04,54,11.40
2014,02,14,04,55,10.40
2014,02,14,04,56,17.90
2014,02,14,04,57,18.20
2014,02,14,04,58,14.20
2014,02,14,04,59,13.40
2014,02,14,05,00,7.80
2014,02,14,05,01,12.80
2014,02,14,05,02,16.60
2014,02,14,05,03,18.20
2014,02,14,05,04,17.50
2014,02,14,05,05,15.30
2014,02,14,05,06,21.70
2014,02,14,05,07,21.90
2014,02,14,05,08,21.30
2014,02,14,05,09,16.80
2014,02,14,05,10,20.80
2014,02,14,05,11,21.40
2014,02,14,05,12,18.30
2014,02,14,05,13,19.60
2014,02,14,05,14,19.10
2014,02,14,05,15,23.00
2014,02,14,05,16,21.80
2014,02,14,05,17,22.10
2014,02,14,05,18,18.50
2014,02,14,05,19,21.70
2014,02,14,05,20,18.40
2014,02,14,05,21,18.60
2014,02,14,05,22,20.70
2014,02,14,05,23,15.80
2014,02,14,05,24,19.60
2014,02,14,05,25,17.50
2014,02,14,05,26,15.20
2014,02,14,05,27,17.10
2014,02,14,05,28,17.80
2014,02,14,05,29,22.40
2014,02,14,05,30,17.70
2014,02,14,05,31,22.70
2014,02,14,05,32,20.50
2014,02,14,05,33,19.50
2014,02,14,05,34,13.60
2014,02,14,05,35,17.00
2014,02,14,05,36,15.60
2014,02,14,05,37,17.10
2014,02,14,05,38,20.80
2014,02,14,05,39,14.40
2014,02,14,05,40,18.50
2014,02,14,05,41,12.90
2014,02,14,05,42,12.10
2014,02,14,05,43,10.10
2014,02,14,05,44,12.50
2014,02,14,05,45,14.00
2014,02,14,05,46,16.60
2014,02,14,05,47,15.90
2014,02,14,05,48,16.90
2014,02,14,05,49,16.00
2014,02,14,05,50,18.70
2014,02,14,05,51,17.60
2014,02,14,05,52,15.80
2014,02,14,05,53,14.60
2014,02,14,05,54,18.90
2014,02,14,05,55,17.20
2014,02,14,05,56,17.50
2014,02,14,05,57,15.40
2014,02,14,05,58,12.20
2014,02,14,05,59,17.60
2014,02,14,06,00,16.70
2014,02,14,06,01,11.20
2014,02,14,06,02,9.30
2014,02,14,06,03,18.60
2014,02,14,06,04,19.70
2014,02,14,06,05,13.10
2014,02,14,06,06,14.50
2014,02,14,06,07,18.90
2014,02,14,06,08,16.20
2014,02,14,06,09,10.20
2014,02,14,06,10,17.20
2014,02,14,06,11,15.00
2014,02,14,06,12,17.20
2014,02,14,06,13,15.00
2014,02,14,06,14,12.90
2014,02,14,06,15,13.90
2014,02,14,06,16,7.90
2014,02,14,06,17,8.40
2014,02,14,06,18,11.40
2014,02,14,06,19,7.60
2014,02,14,06,20,9.70
2014,02,14,06,21,9.30
2014,02,14,06,22,11.70
2014,02,14,06,23,13.50
2014,02,14,06,24,11.10
2014,02,14,06,25,10.50
2014,02,14,06,26,14.00
2014,02,14,06,27,8.60
2014,02,14,06,28,8.80
2014,02,14,06,29,11.30
2014,02,14,06,30,8.40
2014,02,14,06,31,11.70
2014,02,14,06,32,13.00
2014,02,14,06,33,13.80
2014,02,14,06,34,10.90
2014,02,14,06,35,9.10
2014,02,14,06,36,8.10
2014,02,14,06,37,9.70
2014,02,14,06,38,8.40
2014,02,14,06,39,7.60
2014,02,14,06,40,8.90
2014,02,14,06,41,10.10
2014,02,14,06,42,12.10
2014,02,14,06,43,10.10
2014,02,14,06,44,6.00
2014,02,14,06,45,5.40
2014,02,14,06,46,4.30
2014,02,14,06,47,6.40
2014,02,14,06,48,7.80
2014,02,14,06,49,10.00
2014,02,14,06,50,8.20
2014,02,14,06,51,6.50
2014,02,14,06,52,4.40
2014,02,14,06,53,1.90
2014,02,14,06,54,4.30
2014,02,14,06,55,5.90
2014,02,14,06,56,8.90
2014,02,14,06,57,11.90
2014,02,14,06,58,11.40
2014,02,14,06,59,12.60
2014,02,14,07,00,7.40
2014,02,14,07,01,10.10
2014,02,14,07,02,11.00
2014,02,14,07,03,7.60
2014,02,14,07,04,4.90
2014,02,14,07,05,10.50
2014,02,14,07,06,8.20
2014,02,14,07,07,6.40
2014,02,14,07,08,1.60
2014,02,14,07,09,2.80
2014,02,14,07,10,2.80
2014,02,14,07,11,5.80
2014,02,14,07,12,8.80
2014,02,14,07,13,3.00
2014,02,14,07,14,8.50
2014,02,14,07,15,6.90
2014,02,14,07,16,6.00
2014,02,14,07,17,6.80
2014,02,14,07,18,5.50
2014,02,14,07,19,5.30
2014,02,14,07,20,6.50
2014,02,14,07,21,10.00
2014,02,14,07,22,11.00
2014,02,14,07,23,7.60
2014,02,14,07,24,8.50
2014,02,14,07,25,8.10
2014,02,14,07,26,9.90
2014,02,14,07,27,11.90
2014,02,14,07,28,13.30
2014,02,14,07,29,16.70
2014,02,14,07,30,19.70
2014,02,14,07,31,19.20
2014,02,14,07,32,15.80
2014,02,14,07,33,13.50
2014,02,14,07,34,12.90
2014,02,14,07,35,12.80
2014,02,14,07,36,10.20
2014,02,14,07,37,10.10
2014,02,14,07,38,12.10
2014,02,14,07,39,14.10
2014,02,14,07,40,14.80
2014,02,14,07,41,11.10
2014,02,14,07,42,11.40
2014,02,14,07,43,12.00
2014,02,14,07,44,11.50
2014,02,14,07,45,7.80
2014,02,14,07,46,8.20
2014,02,14,07,47,5.70
2014,02,14,07,48,9.60
2014,02,14,07,49,8.30
2014,02,14,07,50,5.60
2014,02,14,07,51,8.30
2014,02,14,07,52,8.00
2014,02,14,07,53,9.50
2014,02,14,07,54,12.10
2014,02,14,07,55,11.10
2014,02,14,07,56,12.20
2014,02,14,07,57,9.30
2014,02,14,07,58,6.00
2014,02,14,07,59,6.80
2014,02,14,08,00,7.10
2014,02,14,08,01,9.00
2014,02,14,08,02,8.50
2014,02,14,08,03,10.50
2014,02,14,08,04,13.10
2014,02,14,08,05,10.80
2014,02,14,08,06,11.00
2014,02,14,08,07,5.90
2014,02,14,08,08,16.10
2014,02,14,08,09,16.40
2014,02,14,08,10,17.60
2014,02,14,08,11,17.60
2014,02,14,08,12,16.80
2014,02,14,08,13,18.40
2014,02,14,08,14,16.50
2014,02,14,08,15,16.50
2014,02,14,08,16,15.30
2014,02,14,08,17,15.60
2014,02,14,08,18,10.50
2014,02,14,08,19,12.20
2014,02,14,08,20,13.60
2014,02,14,08,21,11.20
2014,02,14,08,22,11.60
2014,02,14,08,23,15.90
2014,02,14,08,24,16.30
2014,02,14,08,25,8.80
2014,02,14,08,26,9.40
2014,02,14,08,27,9.30
2014,02,14,08,28,5.90
2014,02,14,08,29,2.00
2014,02,14,08,30,5.70
2014,02,14,08,31,7.70
2014,02,14,08,32,6.40
2014,02,14,08,33,7.90
2014,02,14,08,34,2.50
2014,02,14,08,35,0.10
2014,02,14,08,36,0.10
2014,02,14,08,37,0.00
2014,02,14,08,38,0.30
2014,02,14,08,39,2.40
2014,02,14,08,40,0.00
2014,02,14,08,41,0.60
2014,02,14,08,42,0.20
2014,02,14,08,43,1.00
2014,02,14,08,44,3.20
2014,02,14,08,45,0.50
2014,02,14,08,46,0.00
2014,02,14,08,47,0.00
2014,02,14,08,48,2.40
2014,02,14,08,49,0.00
2014,02,14,08,50,0.20
2014,02,14,08,51,2.50
2014,02,14,08,52,2.90
2014,02,14,08,53,4.30
2014,02,14,08,54,3.40
2014,02,14,08,55,2.40
2014,02,14,08,56,1.70
2014,02,14,08,57,1.60
2014,02,14,08,58,2.70
2014,02,14,08,59,1.20
2014,02,14,09,00,6.00
2014,02,14,09,01,2.60
2014,02,14,09,02,6.60
2014,02,14,09,03,6.00
2014,02,14,09,04,4.60
2014,02,14,09,05,7.30
2014,02,14,09,06,6.70
2014,02,14,09,07,5.70
2014,02,14,09,08,3.60
2014,02,14,09,09,4.00
2014,02,14,09,10,4.40
2014,02,14,09,11,6.10
2014,02,14,09,12,10.60
2014,02,14,09,13,7.80
2014,02,14,09,14,11.70
2014,02,14,09,15,11.70
2014,02,14,09,16,9.60
2014,02,14,09,17,9.80
2014,02,14,09,18,9.30
2014,02,14,09,19,11.30
2014,02,14,09,20,11.30
2014,02,14,09,21,8.60
2014,02,14,09,22,12.90
2014,02,14,09,23,11.80
2014,02,14,09,24,12.60
2014,02,14,09,25,12.60
2014,02,14,09,26,9.60
2014,02,14,09,27,8.90
2014,02,14,09,28,12.60
2014,02,14,09,29,3.70
2014,02,14,09,30,6.80
2014,02,14,09,31,6.20
2014,02,14,09,32,5.50
2014,02,14,09,33,6.30
2014,02,14,09,34,2.20
2014,02,14,09,35,3.90
2014,02,14,09,36,6.00
2014,02,14,09,37,4.70
2014,02,14,09,38,3.90
2014,02,14,09,39,2.00
2014,02,14,09,40,2.90
2014,02,14,09,41,3.50
2014,02,14,09,42,2.00
2014,02,14,09,43,4.30
2014,02,14,09,44,2.70
2014,02,14,09,45,0.80
2014,02,14,09,46,3.80
2014,02,14,09,47,0.40
2014,02,14,09,48,1.00
2014,02,14,09,49,4.20
2014,02,14,09,50,8.70
2014,02,14,09,51,10.30
2014,02,14,09,52,2.80
2014,02,14,09,53,3.50
2014,02,14,09,54,5.40
2014,02,14,09,55,7.10
2014,02,14,09,56,6.00
2014,02,14,09,57,6.00
2014,02,14,09,58,3.40
2014,02,14,09,59,3.50
2014,02,14,10,00,4.30
2014,02,14,10,01,2.90
2014,02,14,10,02,1.20
2014,02,14,10,03,1.10
2014,02,14,10,04,2.90
2014,02,14,10,05,3.00
2014,02,14,10,06,0.80
2014,02,14,10,07,3.50
2014,02,14,10,08,6.10
2014,02,14,10,09,6.50
2014,02,14,10,10,3.30
2014,02,14,10,11,1.80
2014,02,14,10,12,0.30
2014,02,14,10,13,0.00
2014,02,14,10,14,0.40
2014,02,14,10,15,4.30
2014,02,14,10,16,8.00
2014,02,14,10,17,7.10
2014,02,14,10,18,7.30
2014,02,14,10,19,6.80
2014,02,14,10,20,3.50
2014,02,14,10,21,4.80
2014,02,14,10,22,4.30
2014,02,14,10,23,1.80
2014,02,14,10,24,4.50
2014,02,14,10,25,3.10
2014,02,14,10,26,6.40
2014,02,14,10,27,6.90
2014,02,14,10,28,5.60
2014,02,14,10,29,4.00
2014,02,14,10,30,3.30
2014,02,14,10,31,4.40
2014,02,14,10,32,6.00
2014,02,14,10,33,5.50
2014,02,14,10,34,7.20
2014,02,14,10,35,7.20
2014,02,14,10,36,9.90
2014,02,14,10,37,7.40
2014,02,14,10,38,3.30
2014,02,14,10,39,0.70
2014,02,14,10,40,4.80
2014,02,14,10,41,2.60
2014,02,14,10,42,0.10
2014,02,14,10,43,1.60
2014,02,14,10,44,0.60
2014,02,14,10,45,1.80
2014,02,14,10,46,0.30
2014,02,14,10,47,2.40
2014,02,14,10,48,0.20
2014,02,14,10,49,3.50
2014,02,14,10,50,4.60
2014,02,14,10,51,8.90
2014,02,14,10,52,10.30
2014,02,14,10,53,8.00
2014,02,14,10,54,6.30
2014,02,14,10,55,7.20
2014,02,14,10,56,7.80
2014,02,14,10,57,6.60
2014,02,14,10,58,5.50
2014,02,14,10,59,7.50
2014,02,14,11,00,5.30
2014,02,14,11,01,5.80
2014,02,14,11,02,7.10
2014,02,14,11,03,5.70
2014,02,14,11,04,12.60
2014,02,14,11,05,6.10
2014,02,14,11,06,6.80
2014,02,14,11,07,9.90
2014,02,14,11,08,8.10
2014,02,14,11,09,6.80
2014,02,14,11,10,4.90
2014,02,14,11,11,5.70
2014,02,14,11,12,2.60
2014,02,14,11,13,5.80
2014,02,14,11,14,4.30
2014,02,14,11,15,8.80
2014,02,14,11,16,3.10
2014,02,14,11,17,1.80
2014,02,14,11,18,2.60
2014,02,14,11,19,1.20
2014,02,14,11,20,4.80
2014,02,14,11,21,2.80
2014,02,14,11,22,1.20
2014,02,14,11,23,0.80
2014,02,14,11,24,3.90
2014,02,14,11,25,0.20
2014,02,14,11,26,1.30
2014,02,14,11,27,0.00
2014,02,14,11,28,0.00
2014,02,14,11,29,0.20
2014,02,14,11,30,1.40
2014,02,14,11,31,0.20
2014,02,14,11,32,1.10
2014,02,14,11,33,1.70
2014,02,14,11,34,0.00
2014,02,14,11,35,0.00
2014,02,14,11,36,0.00
2014,02,14,11,37,0.10
2014,02,14,11,38,0.00
2014,02,14,11,39,0.60
2014,02,14,11,40,2.90
2014,02,14,11,41,5.80
2014,02,14,11,42,2.50
2014,02,14,11,43,3.50
2014,02,14,11,44,2.30
2014,02,14,11,45,5.00
2014,02,14,11,46,3.20
2014,02,14,11,47,1.20
2014,02,14,11,48,2.00
2014,02,14,11,49,2.00
2014,02,14,11,50,0.90
2014,02,14,11,51,0.00
2014,02,14,11,52,0.30
2014,02,14,11,53,2.50
2014,02,14,11,54,0.50
2014,02,14,11,55,0.20
2014,02,14,11,56,0.20
2014,02,14,11,57,2.60
2014,02,14,11,58,0.00
2014,02,14,11,59,0.00
2014,02,14,12,00,0.00
2014,02,14,12,01,0.60
2014,02,14,12,02,1.90
2014,02,14,12,03,3.60
2014,02,14,12,04,5.20
2014,02,14,12,05,3.90
2014,02,14,12,06,5.70
2014,02,14,12,07,3.90
2014,02,14,12,08,1.40
2014,02,14,12,09,3.20
2014,02,14,12,10,1.20
2014,02,14,12,11,0.30
2014,02,14,12,12,1.30
2014,02,14,12,13,0.80
2014,02,14,12,14,2.60
2014,02,14,12,15,0.00
2014,02,14,12,16,3.00
2014,02,14,12,17,0.00
2014,02,14,12,18,0.00
2014,02,14,12,19,0.00
2014,02,14,12,20,0.00
2014,02,14,12,21,0.00
2014,02,14,12,22,1.10
2014,02,14,12,23,2.70
2014,02,14,12,24,1.00
2014,02,14,12,25,1.40
2014,02,14,12,26,1.30
2014,02,14,12,27,2.70
2014,02,14,12,28,3.40
2014,02,14,12,29,2.60
2014,02,14,12,30,0.50
2014,02,14,12,31,0.10
2014,02,14,12,32,1.90
2014,02,14,12,33,2.90
2014,02,14,12,34,3.80
2014,02,14,12,35,4.10
2014,02,14,12,36,0.30
2014,02,14,12,37,1.90
2014,02,14,12,38,1.60
2014,02,14,12,39,2.60
2014,02,14,12,40,1.50
2014,02,14,12,41,0.30
2014,02,14,12,42,1.60
2014,02,14,12,43,0.00
2014,02,14,12,44,0.60
2014,02,14,12,45,0.40
2014,02,14,12,46,1.20
2014,02,14,12,47,1.60
2014,02,14,12,48,3.90
2014,02,14,12,49,4.40
2014,02,14,12,50,1.00
2014,02,14,12,51,1.60
2014,02,14,12,52,1.30
2014,02,14,12,53,2.30
2014,02,14,12,54,0.90
2014,02,14,12,55,3.10
2014,02,14,12,56,0.00
2014,02,14,12,57,0.40
2014,02,14,12,58,5.00
2014,02,14,12,59,0.60
2014,02,14,13,00,0.00
2014,02,14,13,01,0.00
2014,02,14,13,02,0.00
2014,02,14,13,03,0.10
2014,02,14,13,04,0.30
2014,02,14,13,05,3.00
2014,02,14,13,06,1.10
2014,02,14,13,07,0.80
2014,02,14,13,08,0.50
2014,02,14,13,09,1.40
2014,02,14,13,10,0.20
2014,02,14,13,11,1.00
2014,02,14,13,12,0.10
2014,02,14,13,13,0.20
2014,02,14,13,14,0.00
2014,02,14,13,15,0.20
2014,02,14,13,16,0.10
2014,02,14,13,17,0.00
2014,02,14,13,18,0.20
2014,02,14,13,19,0.20
2014,02,14,13,20,0.00
2014,02,14,13,21,0.20
2014,02,14,13,22,0.10
2014,02,14,13,23,2.00
2014,02,14,13,24,0.40
2014,02,14,13,25,0.00
2014,02,14,13,26,0.10
2014,02,14,13,27,0.50
2014,02,14,13,28,0.10
2014,02,14,13,29,0.00
2014,02,14,13,30,0.00
2014,02,14,13,31,1.40
2014,02,14,13,32,1.90
2014,02,14,13,33,0.90
2014,02,14,13,34,0.40
2014,02,14,13,35,0.00
2014,02,14,13,36,0.00
2014,02,14,13,37,0.20
2014,02,14,13,38,1.50
2014,02,14,13,39,0.90
2014,02,14,13,40,2.60
2014,02,14,13,41,4.70
2014,02,14,13,42,3.80
2014,02,14,13,43,4.50
2014,02,14,13,44,4.00
2014,02,14,13,45,4.30
2014,02,14,13,46,2.90
2014,02,14,13,47,1.80
2014,02,14,13,48,3.40
2014,02,14,13,49,0.50
2014,02,14,13,50,0.00
2014,02,14,13,51,0.20
2014,02,14,13,52,1.70
2014,02,14,13,53,3.80
2014,02,14,13,54,0.20
2014,02,14,13,55,2.20
2014,02,14,13,56,4.40
2014,02,14,13,57,0.60
2014,02,14,13,58,1.30
2014,02,14,13,59,0.00
2014,02,14,14,00,0.20
2014,02,14,14,01,0.00
2014,02,14,14,02,1.60
2014,02,14,14,03,5.90
2014,02,14,14,04,3.40
2014,02,14,14,05,2.90
2014,02,14,14,06,2.70
2014,02,14,14,07,1.20
2014,02,14,14,08,0.00
2014,02,14,14,09,0.20
2014,02,14,14,10,1.60
2014,02,14,14,11,0.10
2014,02,14,14,12,0.00
2014,02,14,14,13,0.20
2014,02,14,14,14,1.30
2014,02,14,14,15,2.80
2014,02,14,14,16,0.50
2014,02,14,14,17,3.30
2014,02,14,14,18,2.90
2014,02,14,14,19,0.40
2014,02,14,14,20,1.10
2014,02,14,14,21,4.20
2014,02,14,14,22,3.20
2014,02,14,14,23,0.90
2014,02,14,14,24,0.10
2014,02,14,14,25,4.20
2014,02,14,14,26,5.30
2014,02,14,14,27,5.80
2014,02,14,14,28,10.30
2014,02,14,14,29,7.80
2014,02,14,14,30,4.20
2014,02,14,14,31,6.00
2014,02,14,14,32,7.00
2014,02,14,14,33,9.10
2014,02,14,14,34,6.00
2014,02,14,14,35,4.00
2014,02,14,14,36,0.20
2014,02,14,14,37,2.60
2014,02,14,14,38,5.30
2014,02,14,14,39,6.50
2014,02,14,14,40,3.50
2014,02,14,14,41,7.40
2014,02,14,14,42,12.50
2014,02,14,14,43,5.30
2014,02,14,14,44,10.70
2014,02,14,14,45,6.30
2014,02,14,14,46,3.10
2014,02,14,14,47,5.20
2014,02,14,14,48,8.10
2014,02,14,14,49,11.20
2014,02,14,14,50,8.70
2014,02,14,14,51,8.20
2014,02,14,14,52,8.90
2014,02,14,14,53,3.40
2014,02,14,14,54,1.50
2014,02,14,14,55,0.60
2014,02,14,14,56,0.70
2014,02,14,14,57,2.80
2014,02,14,14,58,5.10
2014,02,14,14,59,4.10
2014,02,14,15,00,2.50
2014,02,14,15,01,1.90
2014,02,14,15,02,0.90
2014,02,14,15,03,0.40
2014,02,14,15,04,1.00
2014,02,14,15,05,3.90
2014,02,14,15,06,1.30
2014,02,14,15,07,2.80
2014,02,14,15,08,8.40
2014,02,14,15,09,4.80
2014,02,14,15,10,3.60
2014,02,14,15,11,5.00
2014,02,14,15,12,1.10
2014,02,14,15,13,3.20
2014,02,14,15,14,15.20
2014,02,14,15,15,12.40
2014,02,14,15,16,5.80
2014,02,14,15,17,4.70
2014,02,14,15,18,5.90
2014,02,14,15,19,3.00
2014,02,14,15,20,1.00
2014,02,14,15,21,4.30
2014,02,14,15,22,2.00
2014,02,14,15,23,3.60
2014,02,14,15,24,0.50
2014,02,14,15,25,0.00
2014,02,14,15,26,0.00
2014,02,14,15,27,0.10
2014,02,14,15,28,0.00
2014,02,14,15,29,0.20
2014,02,14,15,30,0.00
2014,02,14,15,31,2.80
2014,02,14,15,32,5.00
2014,02,14,15,33,1.80
2014,02,14,15,34,1.60
2014,02,14,15,35,0.00
2014,02,14,15,36,1.30
2014,02,14,15,37,4.10
2014,02,14,15,38,6.40
2014,02,14,15,39,5.30
2014,02,14,15,40,3.40
2014,02,14,15,41,0.10
2014,02,14,15,42,1.40
2014,02,14,15,43,2.00
2014,02,14,15,44,0.20
2014,02,14,15,45,0.00
2014,02,14,15,46,1.20
2014,02,14,15,47,3.70
2014,02,14,15,48,4.00
2014,02,14,15,49,4.70
2014,02,14,15,50,1.20
2014,02,14,15,51,2.50
2014,02,14,15,52,0.80
2014,02,14,15,53,1.20
2014,02,14,15,54,0.00
2014,02,14,15,55,0.10
2014,02,14,15,56,0.00
2014,02,14,15,57,2.00
2014,02,14,15,58,1.90
2014,02,14,15,59,0.20
2014,02,14,16,00,1.50
2014,02,14,16,01,4.80
2014,02,14,16,02,4.70
2014,02,14,16,03,7.30
2014,02,14,16,04,8.10
2014,02,14,16,05,4.90
2014,02,14,16,06,8.70
2014,02,14,16,07,5.80
2014,02,14,16,08,6.40
2014,02,14,16,09,4.30
2014,02,14,16,10,2.70
2014,02,14,16,11,5.10
2014,02,14,16,12,1.90
2014,02,14,16,13,0.70
2014,02,14,16,14,1.50
2014,02,14,16,15,0.30
2014,02,14,16,16,1.90
2014,02,14,16,17,0.20
2014,02,14,16,18,0.00
2014,02,14,16,19,0.00
2014,02,14,16,20,0.10
2014,02,14,16,21,0.60
2014,02,14,16,22,4.70
2014,02,14,16,23,5.30
2014,02,14,16,24,17.20
2014,02,14,16,25,9.40
2014,02,14,16,26,11.60
2014,02,14,16,27,9.20
2014,02,14,16,28,12.20
2014,02,14,16,29,6.00
2014,02,14,16,30,1.50
2014,02,14,16,31,0.20
2014,02,14,16,32,0.20
2014,02,14,16,33,2.40
2014,02,14,16,34,4.70
2014,02,14,16,35,11.90
2014,02,14,16,36,7.20
2014,02,14,16,37,5.10
2014,02,14,16,38,2.30
2014,02,14,16,39,3.90
2014,02,14,16,40,5.10
2014,02,14,16,41,3.20
2014,02,14,16,42,5.20
2014,02,14,16,43,5.60
2014,02,14,16,44,9.70
2014,02,14,16,45,12.60
2014,02,14,16,46,12.30
2014,02,14,16,47,7.70
2014,02,14,16,48,12.40
2014,02,14,16,49,13.20
2014,02,14,16,50,10.00
2014,02,14,16,51,2.80
2014,02,14,16,52,0.60
2014,02,14,16,53,7.10
2014,02,14,16,54,6.80
2014,02,14,16,55,8.60
2014,02,14,16,56,12.20
2014,02,14,16,57,19.50
2014,02,14,16,58,15.60
2014,02,14,16,59,28.00
2014,02,14,17,00,20.30
2014,02,14,17,01,4.70
2014,02,14,17,02,3.90
2014,02,14,17,03,3.90
2014,02,14,17,04,7.00
2014,02,14,17,05,1.70
2014,02,14,17,06,5.60
2014,02,14,17,07,10.90
2014,02,14,17,08,7.90
2014,02,14,17,09,3.20
2014,02,14,17,10,0.20
2014,02,14,17,11,1.30
2014,02,14,17,12,5.00
2014,02,14,17,13,2.30
2014,02,14,17,14,7.20
2014,02,14,17,15,0.80
2014,02,14,17,16,0.00
2014,02,14,17,17,0.80
2014,02,14,17,18,1.70
2014,02,14,17,19,4.50
2014,02,14,17,20,1.20
2014,02,14,17,21,1.20
2014,02,14,17,22,0.00
2014,02,14,17,23,0.00
2014,02,14,17,24,0.00
2014,02,14,17,25,0.20
2014,02,14,17,26,1.20
2014,02,14,17,27,0.90
2014,02,14,17,28,2.20
2014,02,14,17,29,1.10
2014,02,14,17,30,0.60
2014,02,14,17,31,0.20
2014,02,14,17,32,3.40
2014,02,14,17,33,4.60
2014,02,14,17,34,3.90
2014,02,14,17,35,0.30
2014,02,14,17,36,3.00
2014,02,14,17,37,3.50
2014,02,14,17,38,1.40
2014,02,14,17,39,5.40
2014,02,14,17,40,16.70
2014,02,14,17,41,10.70
2014,02,14,17,42,16.30
2014,02,14,17,43,15.70
2014,02,14,17,44,10.40
2014,02,14,17,45,8.60